RYR52KH EKCH-EIDW

Flight info

Callsign RYR52KH
Flight time 2h 30m
Altitude 38000
Route ODDON DCT RERPA DCT TINAC DCT ITSUX DCT NAVSO DCT NELBO DCT NIMAT NIMAT4L
Aircraft B738/M-SDE2E3FGHIRWXY/LB1

Departure

Time 2026-04-30 17:57
Airport Copenhagen Kastrup Airport (EKCH)

Arrival

Time 2026-04-30 20:27
Airport Dublin Airport (EIDW)
Time Latitude Longitude Altitude Speed Heading
2026-04-30 17:39 55.62721 12.65251 19 ft 0 kts
2026-04-30 17:44 55.62690 12.65245 19 ft 2 kts
2026-04-30 17:46 55.62635 12.65316 19 ft 2 kts 335°
2026-04-30 17:47 55.62609 12.65321 19 ft 0 kts 359°
2026-04-30 17:49 55.62566 12.65184 19 ft 15 kts 178°
2026-04-30 17:50 55.62009 12.64951 16 ft 28 kts 214°
2026-04-30 17:51 55.61477 12.64343 16 ft 28 kts 213°
2026-04-30 17:52 55.60903 12.63683 17 ft 35 kts 214°
2026-04-30 17:53 55.60703 12.63910 16 ft 0 kts 41°
2026-04-30 17:56 55.61956 12.65864 283 ft 161 kts 40°
2026-04-30 17:57 55.64755 12.70199 2432 ft 207 kts 38°
2026-04-30 17:58 55.68560 12.70430 4710 ft 229 kts 316°
2026-04-30 17:59 55.75169 12.69105 7970 ft 276 kts 356°
2026-04-30 18:00 55.81045 12.62951 11116 ft 282 kts 270°
2026-04-30 18:00 55.81197 12.51722 12925 ft 330 kts 279°
2026-04-30 18:01 55.81902 12.43799 14650 ft 337 kts 275°
2026-04-30 18:02 55.82732 12.31426 17148 ft 347 kts 273°
2026-04-30 18:02 55.83532 12.18465 19479 ft 358 kts 273°
2026-04-30 18:03 55.84318 12.05311 21594 ft 368 kts 274°
2026-04-30 18:04 55.85120 11.91630 23542 ft 377 kts 274°
2026-04-30 18:05 55.86198 11.72794 25885 ft 389 kts 274°
2026-04-30 18:06 55.87279 11.53368 27960 ft 400 kts 274°
2026-04-30 18:07 55.88354 11.33459 29808 ft 411 kts 274°
2026-04-30 18:08 55.89127 11.18778 31376 ft 409 kts 274°
2026-04-30 18:09 55.90139 10.99012 33562 ft 398 kts 274°
2026-04-30 18:10 55.91090 10.79824 35693 ft 381 kts 275°
2026-04-30 18:11 55.91990 10.61064 36948 ft 380 kts 275°
2026-04-30 18:11 55.92645 10.47019 37717 ft 380 kts 275°
2026-04-30 18:12 55.93286 10.32925 38389 ft 380 kts 274°
2026-04-30 18:13 55.93706 10.23516 38436 ft 384 kts 274°
2026-04-30 18:14 55.94722 9.99998 38425 ft 379 kts 274°
2026-04-30 18:15 55.95877 9.71855 38437 ft 380 kts 274°
2026-04-30 18:16 55.96612 9.53092 38452 ft 380 kts 274°
2026-04-30 18:17 55.96969 9.43686 38452 ft 380 kts 274°
2026-04-30 18:18 55.97469 9.30215 38452 ft 380 kts 273°
2026-04-30 18:18 55.97804 9.20939 38452 ft 380 kts 273°
2026-04-30 18:19 55.98121 9.11984 38452 ft 380 kts 273°
2026-04-30 18:19 55.98445 9.02641 38452 ft 376 kts 272°
2026-04-30 18:20 55.98758 8.93422 38452 ft 368 kts 272°
2026-04-30 18:20 55.99057 8.84401 38452 ft 362 kts 271°
2026-04-30 18:21 55.99348 8.75419 38452 ft 364 kts 271°
2026-04-30 18:21 55.99633 8.66427 38452 ft 365 kts 271°
2026-04-30 18:22 55.99913 8.57384 38452 ft 365 kts 271°
2026-04-30 18:22 56.00320 8.43807 38452 ft 365 kts 271°
2026-04-30 18:23 56.00583 8.34784 38452 ft 365 kts 271°
2026-04-30 18:23 56.00838 8.25790 38452 ft 365 kts 271°
2026-04-30 18:24 56.01212 8.12211 38452 ft 365 kts 271°
2026-04-30 18:25 56.01451 8.03200 38452 ft 365 kts 271°
2026-04-30 18:25 56.01798 7.89649 38452 ft 364 kts 271°
2026-04-30 18:26 56.02128 7.76233 38452 ft 364 kts 271°
2026-04-30 18:27 56.02432 7.63253 38452 ft 364 kts 271°
2026-04-30 18:28 56.02735 7.49710 38452 ft 364 kts 271°
2026-04-30 18:28 56.03023 7.36196 38452 ft 364 kts 271°
2026-04-30 18:29 56.03385 7.18108 38452 ft 364 kts 270°
2026-04-30 18:30 56.03717 7.00312 38452 ft 353 kts 269°
2026-04-30 18:31 56.03941 6.87297 38452 ft 349 kts 268°
2026-04-30 18:32 56.04152 6.74308 38452 ft 351 kts 268°
2026-04-30 18:33 56.04351 6.61228 38452 ft 351 kts 268°
2026-04-30 18:33 56.04536 6.48167 38452 ft 350 kts 268°
2026-04-30 18:34 56.04705 6.35175 38452 ft 351 kts 268°
2026-04-30 18:35 56.04812 6.26466 38452 ft 351 kts 268°
2026-04-30 18:35 56.04913 6.17717 38449 ft 350 kts 268°
2026-04-30 18:36 56.05051 6.04693 38439 ft 350 kts 268°
2026-04-30 18:37 56.05176 5.91658 38424 ft 350 kts 268°
2026-04-30 18:37 56.05249 5.83308 38411 ft 350 kts 268°
2026-04-30 18:38 56.05318 5.74560 38398 ft 350 kts 268°
2026-04-30 18:38 56.05382 5.65892 38398 ft 350 kts 268°
2026-04-30 18:39 56.05439 5.57184 38398 ft 350 kts 268°
2026-04-30 18:39 56.05490 5.48524 38398 ft 350 kts 268°
2026-04-30 18:40 56.05535 5.39825 38398 ft 350 kts 268°
2026-04-30 18:40 56.05574 5.31109 38398 ft 351 kts 267°
2026-04-30 18:41 56.05608 5.22402 38398 ft 350 kts 267°
2026-04-30 18:41 56.05635 5.13685 38398 ft 350 kts 267°
2026-04-30 18:42 56.05656 5.05042 38398 ft 350 kts 267°
2026-04-30 18:42 56.05676 4.92300 38398 ft 347 kts 266°
2026-04-30 18:45 56.05635 4.45842 38398 ft 342 kts 265°
2026-04-30 18:46 56.05608 4.37391 38398 ft 342 kts 265°
2026-04-30 18:46 56.05575 4.28884 38398 ft 342 kts 265°
2026-04-30 18:47 56.05538 4.20380 38398 ft 342 kts 265°
2026-04-30 18:47 56.05495 4.11931 38398 ft 342 kts 265°
2026-04-30 18:48 56.05445 4.03403 38398 ft 342 kts 265°
2026-04-30 18:48 56.05390 3.94927 38398 ft 342 kts 265°
2026-04-30 18:49 56.05329 3.86478 38398 ft 342 kts 265°
2026-04-30 18:49 56.05262 3.77955 38398 ft 342 kts 265°
2026-04-30 18:50 56.05189 3.69468 38398 ft 342 kts 265°
2026-04-30 18:50 56.05111 3.61025 38398 ft 342 kts 265°
2026-04-30 18:51 56.05026 3.52525 38398 ft 342 kts 265°
2026-04-30 18:51 56.04550 3.44126 38398 ft 339 kts 258°
2026-04-30 18:52 56.03831 3.35834 38398 ft 339 kts 259°
2026-04-30 18:52 56.03176 3.27791 38398 ft 340 kts 258°
2026-04-30 18:53 56.02475 3.19455 38398 ft 339 kts 258°
2026-04-30 18:53 56.01779 3.11200 38398 ft 339 kts 258°
2026-04-30 18:54 56.01094 3.03157 38399 ft 339 kts 258°
2026-04-30 18:54 56.00386 2.94891 38399 ft 338 kts 258°
2026-04-30 18:55 55.99669 2.86601 38398 ft 337 kts 258°
2026-04-30 18:55 55.98590 2.74242 38411 ft 337 kts 258°
2026-04-30 18:56 55.97495 2.61848 38421 ft 337 kts 258°
2026-04-30 18:57 55.96389 2.49478 38422 ft 337 kts 258°
2026-04-30 18:57 55.95646 2.41249 38424 ft 337 kts 258°
2026-04-30 18:58 55.94516 2.28866 38425 ft 338 kts 257°
2026-04-30 18:59 55.93380 2.16530 38425 ft 337 kts 257°
2026-04-30 19:00 55.91843 2.00084 38425 ft 337 kts 257°
2026-04-30 19:01 55.90282 1.83629 38425 ft 336 kts 257°
2026-04-30 19:02 55.89105 1.71382 38425 ft 337 kts 257°
2026-04-30 19:03 55.87510 1.54990 38425 ft 337 kts 257°
2026-04-30 19:04 55.85892 1.38602 38425 ft 337 kts 257°
2026-04-30 19:05 55.84251 1.22215 38425 ft 337 kts 257°
2026-04-30 19:06 55.82592 1.05877 38425 ft 338 kts 257°
2026-04-30 19:06 55.81319 0.93494 38418 ft 340 kts 257°
2026-04-30 19:07 55.80038 0.81157 38334 ft 340 kts 257°
2026-04-30 19:08 55.78308 0.64697 38263 ft 339 kts 256°
2026-04-30 19:09 55.76997 0.52375 38263 ft 340 kts 256°
2026-04-30 19:09 55.76120 0.44198 38263 ft 340 kts 256°
2026-04-30 19:10 55.74337 0.27751 38263 ft 339 kts 256°
2026-04-30 19:11 55.72987 0.15425 38263 ft 339 kts 256°
2026-04-30 19:12 55.72087 0.07277 38263 ft 339 kts 256°
2026-04-30 19:12 55.71174 -0.00931 38263 ft 339 kts 256°
2026-04-30 19:13 55.69336 -0.17305 38263 ft 339 kts 256°
2026-04-30 19:14 55.68404 -0.25527 38263 ft 339 kts 256°
2026-04-30 19:14 55.67535 -0.33142 38263 ft 339 kts 256°
2026-04-30 19:15 55.66598 -0.41303 38263 ft 339 kts 256°
2026-04-30 19:15 55.65181 -0.53561 38263 ft 339 kts 256°
2026-04-30 19:16 55.64230 -0.61713 38263 ft 339 kts 256°
2026-04-30 19:17 55.62823 -0.73694 38263 ft 339 kts 255°
2026-04-30 19:17 55.61457 -0.85223 38263 ft 339 kts 255°
2026-04-30 19:18 55.60002 -0.97401 38263 ft 339 kts 255°
2026-04-30 19:19 55.59019 -1.05559 38263 ft 339 kts 255°
2026-04-30 19:19 55.57586 -1.17366 38263 ft 340 kts 256°
2026-04-30 19:20 55.56578 -1.25509 38263 ft 339 kts 256°
2026-04-30 19:21 55.55096 -1.37636 38263 ft 339 kts 256°
2026-04-30 19:22 55.53120 -1.53540 38263 ft 339 kts 256°
2026-04-30 19:23 55.50208 -1.76633 38263 ft 339 kts 255°
2026-04-30 19:24 55.48653 -1.88816 38263 ft 339 kts 255°
2026-04-30 19:25 55.46039 -2.09051 38263 ft 339 kts 255°
2026-04-30 19:26 55.43926 -2.25210 38263 ft 339 kts 255°
2026-04-30 19:27 55.42330 -2.37291 38263 ft 339 kts 255°
2026-04-30 19:28 55.40721 -2.49375 38244 ft 339 kts 255°
2026-04-30 19:29 55.38553 -2.65502 38209 ft 339 kts 255°
2026-04-30 19:30 55.36370 -2.81562 38209 ft 339 kts 255°
2026-04-30 19:31 55.34156 -2.97679 38209 ft 340 kts 254°
2026-04-30 19:31 55.32476 -3.09787 38209 ft 342 kts 254°
2026-04-30 19:32 55.31350 -3.17874 38209 ft 344 kts 254°
2026-04-30 19:32 55.30212 -3.26037 38209 ft 342 kts 254°
2026-04-30 19:33 55.29076 -3.34106 38209 ft 342 kts 254°
2026-04-30 19:33 55.27917 -3.42228 38209 ft 343 kts 254°
2026-04-30 19:34 55.26761 -3.50319 38209 ft 342 kts 254°
2026-04-30 19:35 55.25036 -3.62408 38207 ft 343 kts 254°
2026-04-30 19:35 55.23854 -3.70515 38193 ft 343 kts 253°
2026-04-30 19:36 55.22615 -3.78515 38176 ft 341 kts 249°
2026-04-30 19:36 55.18615 -3.88800 38155 ft 345 kts 233°
2026-04-30 19:37 55.15600 -3.95229 38155 ft 344 kts 233°
2026-04-30 19:37 55.12540 -4.01644 38155 ft 344 kts 233°
2026-04-30 19:38 55.09485 -4.07985 38155 ft 342 kts 233°
2026-04-30 19:38 55.06412 -4.14381 38155 ft 344 kts 233°
2026-04-30 19:39 55.03345 -4.20698 38155 ft 343 kts 233°
2026-04-30 19:39 55.00263 -4.27039 38155 ft 338 kts 233°
2026-04-30 19:40 54.97269 -4.33201 37756 ft 327 kts 233°
2026-04-30 19:40 54.95828 -4.36160 37317 ft 322 kts 233°
2026-04-30 19:40 54.94388 -4.39112 36848 ft 318 kts 233°
2026-04-30 19:41 54.92972 -4.42011 36378 ft 315 kts 234°
2026-04-30 19:41 54.91578 -4.44864 35989 ft 314 kts 233°
2026-04-30 19:41 54.90226 -4.47625 35628 ft 310 kts 234°
2026-04-30 19:41 54.88847 -4.50432 35259 ft 303 kts 234°
2026-04-30 19:42 54.87495 -4.53184 34896 ft 297 kts 234°
2026-04-30 19:42 54.86179 -4.55861 34541 ft 291 kts 234°
2026-04-30 19:42 54.84868 -4.58528 34191 ft 294 kts 234°
2026-04-30 19:42 54.83525 -4.61259 33821 ft 296 kts 234°
2026-04-30 19:43 54.82205 -4.63930 33463 ft 290 kts 234°
2026-04-30 19:43 54.80909 -4.66551 33112 ft 284 kts 233°
2026-04-30 19:43 54.79664 -4.69078 32777 ft 292 kts 233°
2026-04-30 19:44 54.77021 -4.74410 32052 ft 286 kts 233°
2026-04-30 19:44 54.75749 -4.76974 31704 ft 281 kts 233°
2026-04-30 19:44 54.74500 -4.79495 31367 ft 288 kts 233°
2026-04-30 19:44 54.73190 -4.82135 31002 ft 288 kts 233°
2026-04-30 19:45 54.71896 -4.84729 30648 ft 283 kts 232°
2026-04-30 19:45 54.70631 -4.87267 30303 ft 278 kts 232°
2026-04-30 19:45 54.69366 -4.89812 29961 ft 286 kts 232°
2026-04-30 19:45 54.68063 -4.92423 29598 ft 285 kts 232°
2026-04-30 19:46 54.66785 -4.94974 29250 ft 280 kts 232°
2026-04-30 19:46 54.65517 -4.97510 28905 ft 278 kts 232°
2026-04-30 19:46 54.64243 -5.00061 28556 ft 286 kts 231°
2026-04-30 19:46 54.62943 -5.02653 28196 ft 282 kts 231°
2026-04-30 19:47 54.61677 -5.05173 27853 ft 276 kts 231°
2026-04-30 19:47 54.60855 -5.06809 27631 ft 276 kts 231°
2026-04-30 19:47 54.59141 -5.10223 27159 ft 284 kts 231°
2026-04-30 19:47 54.57862 -5.12762 26805 ft 279 kts 231°
2026-04-30 19:48 54.56649 -5.15168 26472 ft 274 kts 231°
2026-04-30 19:48 54.55405 -5.17638 26139 ft 279 kts 231°
2026-04-30 19:48 54.54149 -5.20126 25788 ft 280 kts 231°
2026-04-30 19:48 54.52893 -5.22610 25442 ft 275 kts 231°
2026-04-30 19:49 54.51655 -5.25055 25104 ft 271 kts 231°
2026-04-30 19:49 54.49002 -5.29883 24402 ft 279 kts 222°
2026-04-30 19:49 54.47430 -5.31593 24069 ft 279 kts 213°
2026-04-30 19:50 54.45722 -5.32996 23729 ft 279 kts 212°
2026-04-30 19:50 54.43971 -5.34501 23374 ft 285 kts 213°
2026-04-30 19:50 54.42228 -5.36005 23019 ft 281 kts 212°
2026-04-30 19:50 54.40476 -5.37490 22666 ft 276 kts 212°
2026-04-30 19:51 54.38766 -5.38941 22326 ft 279 kts 212°
2026-04-30 19:51 54.37016 -5.40427 21970 ft 282 kts 212°
2026-04-30 19:51 54.35273 -5.41894 21617 ft 278 kts 212°
2026-04-30 19:51 54.33556 -5.43339 21271 ft 273 kts 212°
2026-04-30 19:52 54.31847 -5.44780 20931 ft 278 kts 212°
2026-04-30 19:52 54.30123 -5.46233 20577 ft 280 kts 211°
2026-04-30 19:52 54.28397 -5.47679 20228 ft 275 kts 211°
2026-04-30 19:52 54.26689 -5.49109 19882 ft 271 kts 211°
2026-04-30 19:53 54.24994 -5.50534 19544 ft 278 kts 211°
2026-04-30 19:53 54.23244 -5.51999 19183 ft 276 kts 211°
2026-04-30 19:53 54.21549 -5.53415 18840 ft 272 kts 211°
2026-04-30 19:53 54.19854 -5.54831 18497 ft 270 kts 211°
2026-04-30 19:54 54.18150 -5.56258 18153 ft 277 kts 210°
2026-04-30 19:54 54.16423 -5.57696 17799 ft 274 kts 210°
2026-04-30 19:54 54.14729 -5.59106 17456 ft 270 kts 210°
2026-04-30 19:54 54.13069 -5.60489 17122 ft 271 kts 210°
2026-04-30 19:55 54.11340 -5.61931 16768 ft 275 kts 210°
2026-04-30 19:55 54.09649 -5.63333 16422 ft 272 kts 210°
2026-04-30 19:55 54.07953 -5.64740 16077 ft 268 kts 210°
2026-04-30 19:55 54.06288 -5.66123 15745 ft 271 kts 209°
2026-04-30 19:56 54.04587 -5.67534 15391 ft 274 kts 209°
2026-04-30 19:56 54.02872 -5.68952 15041 ft 271 kts 208°
2026-04-30 19:56 54.01208 -5.70328 14701 ft 268 kts 208°
2026-04-30 19:56 53.99545 -5.71703 14367 ft 268 kts 208°
2026-04-30 19:57 53.97829 -5.73084 14015 ft 274 kts 205°
2026-04-30 19:57 53.96030 -5.74043 13665 ft 274 kts 194°
2026-04-30 19:57 53.94150 -5.74360 13321 ft 275 kts 186°
2026-04-30 19:57 53.92230 -5.74477 12966 ft 272 kts 186°
2026-04-30 19:58 53.90344 -5.74635 12619 ft 274 kts 186°
2026-04-30 19:58 53.88426 -5.74784 12260 ft 278 kts 186°
2026-04-30 19:58 53.86511 -5.74920 11903 ft 276 kts 185°
2026-04-30 19:58 53.84607 -5.75057 11549 ft 274 kts 185°
2026-04-30 19:59 53.82727 -5.75192 11198 ft 272 kts 185°
2026-04-30 19:59 53.80850 -5.75325 10847 ft 270 kts 185°
2026-04-30 19:59 53.77129 -5.75588 10155 ft 266 kts 184°
2026-04-30 20:00 53.75314 -5.75715 9982 ft 258 kts 184°
2026-04-30 20:00 53.73530 -5.75841 9624 ft 257 kts 184°
2026-04-30 20:00 53.71735 -5.75968 9296 ft 255 kts 183°
2026-04-30 20:00 53.69992 -5.76090 8981 ft 253 kts 183°
2026-04-30 20:01 53.66504 -5.76336 8375 ft 248 kts 182°
2026-04-30 20:01 53.64814 -5.76454 8238 ft 238 kts 182°
2026-04-30 20:01 53.63218 -5.76173 8121 ft 229 kts 160°
2026-04-30 20:02 53.61035 -5.72296 8088 ft 238 kts 130°
2026-04-30 20:02 53.60027 -5.70102 8087 ft 238 kts 130°
2026-04-30 20:03 53.58102 -5.65788 8086 ft 238 kts 130°
2026-04-30 20:03 53.57040 -5.63643 8080 ft 235 kts 142°
2026-04-30 20:03 53.55720 -5.62196 8085 ft 233 kts 152°
2026-04-30 20:03 53.54332 -5.60804 8085 ft 233 kts 150°
2026-04-30 20:04 53.52959 -5.59393 8085 ft 233 kts 150°
2026-04-30 20:04 53.51561 -5.57964 8085 ft 233 kts 150°
2026-04-30 20:04 53.50173 -5.56544 8084 ft 233 kts 150°
2026-04-30 20:05 53.47203 -5.54870 8084 ft 231 kts 172°
2026-04-30 20:05 53.45629 -5.54455 8084 ft 231 kts 171°
2026-04-30 20:05 53.42460 -5.53580 8084 ft 231 kts 171°
2026-04-30 20:06 53.40873 -5.53144 8084 ft 231 kts 171°
2026-04-30 20:06 53.39295 -5.52943 8077 ft 230 kts 186°
2026-04-30 20:06 53.37738 -5.53512 8084 ft 230 kts 193°
2026-04-30 20:06 53.36167 -5.54118 8084 ft 230 kts 191°
2026-04-30 20:07 53.34617 -5.54697 8084 ft 230 kts 192°
2026-04-30 20:07 53.33051 -5.55286 8083 ft 230 kts 192°
2026-04-30 20:07 53.29958 -5.56722 8077 ft 231 kts 208°
2026-04-30 20:08 53.28622 -5.58228 8083 ft 232 kts 212°
2026-04-30 20:08 53.27283 -5.59742 8083 ft 232 kts 211°
2026-04-30 20:08 53.26004 -5.61381 8078 ft 234 kts 224°
2026-04-30 20:08 53.25191 -5.63751 8075 ft 240 kts 251°
2026-04-30 20:09 53.25075 -5.66558 8012 ft 250 kts 275°
2026-04-30 20:09 53.25732 -5.69263 7752 ft 257 kts 305°
2026-04-30 20:09 53.28222 -5.73555 7261 ft 255 kts 310°
2026-04-30 20:10 53.30669 -5.77831 6760 ft 254 kts 312°
2026-04-30 20:10 53.31879 -5.79928 6513 ft 253 kts 312°
2026-04-30 20:10 53.33092 -5.82069 6260 ft 252 kts 308°
2026-04-30 20:11 53.34574 -5.87252 5762 ft 248 kts 290°
2026-04-30 20:11 53.35242 -5.89925 5510 ft 247 kts 290°
2026-04-30 20:11 53.35907 -5.92588 5258 ft 247 kts 291°
2026-04-30 20:12 53.37219 -5.97842 4760 ft 245 kts 291°
2026-04-30 20:12 53.37877 -6.00479 4508 ft 244 kts 291°
2026-04-30 20:12 53.38536 -6.03121 4255 ft 243 kts 291°
2026-04-30 20:13 53.39180 -6.05705 4007 ft 242 kts 291°
2026-04-30 20:13 53.39822 -6.08284 3897 ft 232 kts 292°
2026-04-30 20:13 53.40437 -6.10761 3910 ft 239 kts 291°
2026-04-30 20:13 53.41080 -6.13353 3901 ft 233 kts 292°
2026-04-30 20:14 53.41700 -6.15853 3910 ft 239 kts 291°
2026-04-30 20:14 53.42332 -6.18406 3902 ft 234 kts 292°
2026-04-30 20:14 53.42954 -6.20921 3910 ft 238 kts 291°
2026-04-30 20:14 53.43592 -6.23501 3903 ft 234 kts 292°
2026-04-30 20:15 53.44205 -6.25984 3909 ft 237 kts 292°
2026-04-30 20:15 53.44843 -6.28573 3904 ft 236 kts 292°
2026-04-30 20:15 53.45462 -6.31087 3908 ft 237 kts 292°
2026-04-30 20:15 53.46093 -6.33653 3906 ft 237 kts 292°
2026-04-30 20:16 53.46708 -6.36154 3906 ft 234 kts 293°
2026-04-30 20:16 53.47325 -6.38687 3909 ft 229 kts 294°
2026-04-30 20:16 53.47919 -6.41103 3900 ft 215 kts 294°
2026-04-30 20:16 53.48506 -6.43494 3911 ft 226 kts 294°
2026-04-30 20:17 53.49087 -6.45870 3900 ft 215 kts 294°
2026-04-30 20:17 53.49675 -6.48271 3911 ft 225 kts 294°
2026-04-30 20:17 53.50258 -6.50663 3900 ft 215 kts 294°
2026-04-30 20:17 53.50834 -6.53022 3919 ft 222 kts 294°
2026-04-30 20:18 53.51400 -6.55354 3907 ft 206 kts 294°
2026-04-30 20:18 53.51923 -6.57503 3859 ft 192 kts 294°
2026-04-30 20:18 53.52409 -6.59504 3839 ft 174 kts 294°
2026-04-30 20:18 53.52853 -6.61332 3835 ft 167 kts 294°
2026-04-30 20:19 53.53291 -6.63134 3838 ft 168 kts 294°
2026-04-30 20:19 53.53561 -6.64386 3833 ft 169 kts 285°
2026-04-30 20:19 53.53088 -6.66802 3820 ft 176 kts 217°
2026-04-30 20:19 53.51987 -6.67229 3832 ft 180 kts 172°
2026-04-30 20:20 53.50799 -6.66826 3852 ft 168 kts 176°
2026-04-30 20:20 53.49704 -6.67271 3845 ft 162 kts 204°
2026-04-30 20:20 53.48704 -6.67826 3842 ft 163 kts 182°
2026-04-30 20:20 53.47615 -6.67890 3851 ft 164 kts 182°
2026-04-30 20:21 53.46506 -6.67615 3825 ft 162 kts 148°
2026-04-30 20:21 53.45787 -6.66168 3852 ft 169 kts 119°
2026-04-30 20:21 53.45524 -6.64351 3846 ft 173 kts 95°
2026-04-30 20:21 53.45474 -6.62387 3848 ft 165 kts 96°
2026-04-30 20:22 53.45391 -6.60437 3865 ft 174 kts 97°
2026-04-30 20:22 53.45304 -6.58419 3709 ft 171 kts 97°
2026-04-30 20:22 53.45215 -6.56409 3503 ft 170 kts 97°
2026-04-30 20:22 53.45129 -6.54468 3280 ft 162 kts 96°
2026-04-30 20:23 53.45047 -6.52627 3081 ft 163 kts 97°
2026-04-30 20:23 53.44986 -6.50662 2844 ft 165 kts 94°
2026-04-30 20:23 53.44933 -6.48769 2653 ft 163 kts 98°
2026-04-30 20:23 53.44780 -6.46879 2479 ft 163 kts 99°
2026-04-30 20:24 53.44649 -6.45004 2269 ft 157 kts 99°
2026-04-30 20:24 53.44539 -6.43217 2061 ft 153 kts 97°
2026-04-30 20:24 53.44439 -6.41412 1855 ft 157 kts 97°
2026-04-30 20:24 53.44339 -6.39575 1655 ft 158 kts 97°
2026-04-30 20:25 53.44151 -6.36084 1245 ft 150 kts 96°
2026-04-30 20:25 53.44059 -6.34372 1025 ft 145 kts 97°
2026-04-30 20:26 53.43879 -6.30978 685 ft 146 kts 96°
2026-04-30 20:26 53.43690 -6.27611 276 ft 145 kts 96°
2026-04-30 20:26 53.43605 -6.26110 252 ft 100 kts 95°
2026-04-30 20:27 53.43487 -6.25108 251 ft 22 kts 120°
2026-04-30 20:27 53.43385 -6.25218 251 ft 19 kts 275°
2026-04-30 20:28 53.43395 -6.25404 251 ft 0 kts 275°
2026-04-30 20:28 53.43403 -6.25568 251 ft 17 kts 269°
2026-04-30 20:29 53.43107 -6.25473 251 ft 32 kts 148°
2026-04-30 20:30 53.42954 -6.25014 251 ft 15 kts 95°
2026-04-30 20:30 53.43004 -6.24943 251 ft 0 kts